Tracking 29892 objects as of 21-Nov-2024
HD Live streaming from Space Station
objects crossing your sky now

STARLINK-2482

Track STARLINK-2482 now!
10-day predictions
STARLINK-2482 is classified as:


NORAD ID: 48139
Int'l Code: 2021-027AZ
Perigee: 553.2 km
Apogee: 555.5 km
Inclination: 53.1 °
Period: 95.6 minutes
Semi major axis: 6925 km
RCS: Unknown
Launch date: April 7, 2021
Source: United States (US)
Launch site: AIR FORCE EASTERN TEST RANGE (AFETR)
Your satellite tracking list
Your tracking list is empty




NASA's NSSDC Master Catalog

Two Line Element Set (TLE):
1 48139U 21027AZ  24325.85671314  .00002888  00000-0  21264-3 0  9992
2 48139  53.0552 118.7339 0001676  98.8908 261.2271 15.06412229200882
Source of the keplerian elements: AFSPC